| time (UTC) | temp F | wind direction | speed MPH | gust MPH | rain 1hr in | rain 24hr in | rain mn in | humidity % | barometer mb |
| 20260502170349 | 61 | 54 | 0.0 | 3.0 | 0.00 | 0.37 | 0.37 | 92 | 1016.1 |
| 20260502164336 | 61 | 90 | 0.0 | 2.0 | 0.00 | 0.37 | 0.37 | 94 | 1016.3 |
| 20260502163832 | 60 | 74 | 0.0 | 3.0 | 0.00 | 0.37 | 0.37 | 94 | 1016.4 |
| 20260502163328 | 60 | 86 | 2.0 | 4.0 | 0.00 | 0.37 | 0.37 | 94 | 1016.4 |
| 20260502162826 | 60 | 54 | 0.0 | 2.0 | 0.00 | 0.37 | 0.37 | 95 | 1016.5 |
| 20260502162322 | 60 | 71 | 2.0 | 3.0 | 0.00 | 0.37 | 0.37 | 95 | 1016.4 |
| 20260502161820 | 60 | 123 | 3.0 | 3.0 | 0.00 | 0.37 | 0.37 | 95 | 1016.3 |
| 20260502161315 | 60 | 145 | 0.0 | 2.0 | 0.00 | 0.37 | 0.37 | 96 | 1016.4 |
| 20260502160813 | 60 | 106 | 0.0 | 3.0 | 0.02 | 0.37 | 0.37 | 96 | 1016.6 |
| 20260502160312 | 60 | 349 | 2.0 | 3.0 | 0.02 | 0.37 | 0.37 | 96 | 1016.5 |
| 20260502152247 | 60 | 97 | 0.0 | 3.0 | 0.02 | 0.36 | 0.36 | 98 | 1016.6 |
| 20260502151744 | 60 | 77 | 2.0 | 3.0 | 0.02 | 0.36 | 0.36 | 98 | 1016.5 |
| 20260502151241 | 60 | 75 | 0.0 | 5.0 | 0.00 | 0.35 | 0.35 | 99 | 1016.4 |
| 20260502150739 | 60 | 353 | 0.0 | 0.0 | 0.00 | 0.35 | 0.35 | 99 | 1017.0 |
| 20260502150236 | 59 | 249 | 0.0 | 1.0 | 0.00 | 0.35 | 0.35 | 99 | 1016.8 |
| 20260502130624 | 57 | 290 | 3.0 | 3.0 | 0.00 | 0.33 | 0.33 | 99 | 1016.5 |
| 20260502130122 | 57 | 188 | 0.0 | 2.0 | 0.00 | 0.33 | 0.33 | 99 | 1016.4 |
| 20260502123607 | 57 | 103 | 1.0 | 2.0 | 0.02 | 0.33 | 0.33 | 99 | 1015.6 |
| 20260502123104 | 57 | 90 | 2.0 | 2.0 | 0.02 | 0.33 | 0.33 | 99 | 1015.6 |
| 20260502122600 | 57 | 83 | 0.0 | 4.0 | 0.02 | 0.32 | 0.32 | 99 | 1015.7 |
| 20260502122057 | 57 | 60 | 0.0 | 2.0 | 0.07 | 0.32 | 0.32 | 99 | 1016.0 |
| 20260502121555 | 57 | 195 | 0.0 | 1.0 | 0.12 | 0.32 | 0.32 | 99 | 1016.4 |
| 20260502121053 | 56 | 203 | 0.0 | 2.0 | 0.09 | 0.31 | 0.31 | 99 | 1016.9 |
| 20260502120548 | 56 | 23 | 0.0 | 3.0 | 0.07 | 0.29 | 0.29 | 99 | 1016.5 |
| 20260502115544 | 57 | 300 | 0.0 | 3.0 | 0.12 | 0.28 | 0.28 | 99 | 1016.3 |
| 20260502115039 | 56 | 270 | 0.0 | 2.0 | 0.09 | 0.27 | 0.27 | 99 | 1016.5 |
| 20260502114536 | 57 | 270 | 2.0 | 2.0 | 0.05 | 0.26 | 0.26 | 99 | 1016.6 |
| 20260502114033 | 57 | 221 | 2.0 | 3.0 | 0.02 | 0.26 | 0.26 | 99 | 1016.4 |
| 20260502113531 | 57 | 279 | 0.0 | 3.0 | 0.05 | 0.26 | 0.26 | 99 | 1016.6 |
| 20260502113029 | 57 | 283 | 2.0 | 2.0 | 0.02 | 0.25 | 0.25 | 99 | 1015.9 |
| 20260502112526 | 56 | 233 | 0.0 | 2.0 | 0.00 | 0.25 | 0.25 | 99 | 1015.8 |
| 20260502112024 | 56 | 8 | 0.0 | 0.0 | 0.02 | 0.25 | 0.25 | 99 | 1015.4 |
| 20260502111521 | 56 | 228 | 0.0 | 2.0 | 0.00 | 0.24 | 0.24 | 99 | 1015.3 |
| 20260502111018 | 57 | 270 | 0.0 | 2.0 | 0.02 | 0.24 | 0.24 | 99 | 1015.4 |
| 20260502110515 | 56 | 245 | 0.0 | 3.0 | 0.02 | 0.24 | 0.24 | 99 | 1015.5 |
| 20260502110013 | 57 | 254 | 0.0 | 1.0 | 0.02 | 0.24 | 0.24 | 99 | 1015.3 |
| 20260502105510 | 57 | 289 | 0.0 | 3.0 | 0.02 | 0.24 | 0.24 | 99 | 1015.6 |
| 20260502105008 | 56 | 237 | 0.0 | 2.0 | 0.00 | 0.24 | 0.24 | 99 | 1015.5 |
| 20260502104505 | 56 | 276 | 0.0 | 0.0 | 0.00 | 0.24 | 0.24 | 99 | 1015.2 |
| 20260502104002 | 57 | 186 | 0.0 | 1.0 | 0.00 | 0.24 | 0.24 | 99 | 1015.3 |
| 20260502103459 | 57 | 243 | 2.0 | 2.0 | 0.00 | 0.24 | 0.24 | 99 | 1015.2 |
| 20260502102956 | 56 | 257 | 2.0 | 4.0 | 0.00 | 0.24 | 0.24 | 99 | 1015.3 |
| 20260502102454 | 57 | 164 | 0.0 | 3.0 | 0.00 | 0.24 | 0.24 | 99 | 1015.3 |
| 20260502101950 | 56 | 246 | 0.0 | 2.0 | 0.00 | 0.24 | 0.24 | 99 | 1015.1 |
| 20260502101449 | 56 | 74 | 0.0 | 0.0 | 0.00 | 0.24 | 0.24 | 99 | 1014.9 |
| 20260502100947 | 57 | 66 | 0.0 | 0.0 | 0.02 | 0.24 | 0.24 | 99 | 1014.7 |
| 20260502100445 | 57 | 66 | 0.0 | 0.0 | 0.02 | 0.24 | 0.24 | 99 | 1014.9 |
| 20260502091420 | 57 | 203 | 0.0 | 2.0 | 0.05 | 0.21 | 0.21 | 99 | 1015.7 |
| 20260502090917 | 57 | 216 | 0.0 | 2.0 | 0.02 | 0.20 | 0.20 | 99 | 1015.9 |
| 20260502090414 | 57 | 7 | 0.0 | 1.0 | 0.02 | 0.20 | 0.20 | 99 | 1015.8 |
| 20260502071308 | 59 | 180 | 0.0 | 0.0 | 0.05 | 0.03 | 0.03 | 97 | 1015.9 |
| 20260502070807 | 59 | 180 | 0.0 | 0.0 | 0.00 | 0.02 | 0.02 | 97 | 1015.8 |
| 20260502070304 | 59 | 166 | 1.0 | 2.0 | 0.00 | 0.02 | 0.02 | 96 | 1015.7 |
| 20260502065803 | 59 | 203 | 0.0 | 2.0 | 0.02 | 0.02 | 0.02 | 96 | 1015.6 |
| 20260502065300 | 59 | 185 | 0.0 | 2.0 | 0.02 | 0.02 | 0.02 | 96 | 1015.9 |
| 20260502064758 | 60 | 353 | 0.0 | 2.0 | 0.00 | 0.02 | 0.02 | 96 | 1016.0 |
| 20260502064256 | 60 | 174 | 0.0 | 2.0 | 0.02 | 0.02 | 0.02 | 96 | 1015.7 |
| 20260502063753 | 60 | 237 | 0.0 | 4.0 | 0.02 | 0.02 | 0.02 | 95 | 1016.2 |
| 20260502063251 | 60 | 200 | 3.0 | 3.0 | 0.02 | 0.02 | 0.02 | 95 | 1016.1 |
| 20260502062748 | 60 | 220 | 0.0 | 3.0 | 0.02 | 0.01 | 0.01 | 95 | 1015.9 |
| 20260502062245 | 60 | 180 | 0.0 | 3.0 | 0.02 | 0.01 | 0.01 | 94 | 1015.9 |
| 20260502061744 | 60 | 166 | 0.0 | 2.0 | 0.02 | 0.01 | 0.01 | 94 | 1015.9 |
| 20260502061241 | 60 | 246 | 0.0 | 0.0 | 0.00 | 0.00 | 0.00 | 94 | 1016.2 |
| 20260502060736 | 60 | 200 | 0.0 | 0.0 | 0.02 | 0.00 | 0.00 | 94 | 1016.3 |
| 20260502060232 | 60 | 198 | 1.0 | 2.0 | 0.00 | 0.00 | 0.00 | 93 | 1016.5 |
| 20260502055730 | 60 | 201 | 0.0 | 2.0 | 0.00 | 0.00 | 0.00 | 93 | 1016.3 |
| 20260502055227 | 60 | 246 | 0.0 | 2.0 | 0.00 | 0.00 | 0.00 | 93 | 1016.2 |
| 20260502054726 | 60 | 78 | 0.0 | 0.0 | 0.00 | 0.00 | 0.00 | 92 | 1016.1 |
| 20260502054224 | 60 | 78 | 0.0 | 0.0 | 0.00 | 0.00 | 0.00 | 92 | 1016.1 |
| 20260502053721 | 60 | 78 | 0.0 | 0.0 | 0.00 | 0.00 | 0.00 | 92 | 1016.0 |
| 20260502053218 | 60 | 78 | 0.0 | 0.0 | 0.00 | 0.00 | 0.00 | 91 | 1016.3 |
| 20260502052716 | 60 | 77 | 1.0 | 1.0 | 0.00 | 0.00 | 0.00 | 91 | 1016.4 |
| 20260502052214 | 60 | 90 | 0.0 | 0.0 | 0.00 | 0.00 | 0.00 | 91 | 1016.4 |
| 20260502051712 | 60 | 81 | 0.0 | 0.0 | 0.00 | 0.00 | 0.00 | 91 | 1016.6 |
| 20260502051210 | 61 | 99 | 0.0 | 0.0 | 0.00 | 0.00 | 0.00 | 90 | 1016.8 |
| 20260502050706 | 61 | 180 | 0.0 | 0.0 | 0.00 | 0.00 | 0.00 | 90 | 1016.7 |
| 20260502050202 | 61 | 114 | 0.0 | 0.0 | 0.00 | 0.00 | 0.00 | 90 | 1016.7 |
| 20260502045659 | 61 | 114 | 0.0 | 2.0 | 0.00 | 0.00 | 0.00 | 89 | 1017.2 |
| 20260502045157 | 61 | 96 | 0.0 | 0.0 | 0.00 | 0.00 | 0.00 | 89 | 1016.7 |
| 20260502044653 | 61 | 96 | 0.0 | 0.0 | 0.00 | 0.00 | 0.00 | 89 | 1016.6 |
| 20260502044149 | 61 | 96 | 0.0 | 0.0 | 0.00 | 0.00 | 0.00 | 88 | 1016.9 |
| 20260502043647 | 61 | 90 | 0.0 | 0.0 | 0.00 | 0.00 | 0.00 | 88 | 1016.7 |
| 20260502043144 | 61 | 0 | 0.0 | 0.0 | 0.00 | 0.00 | 0.00 | 87 | 1016.7 |
| 20260502042644 | 61 | 0 | 0.0 | 0.0 | 0.00 | 0.00 | 0.00 | 86 | 1016.6 |
| 20260502042141 | 61 | 0 | 0.0 | 0.0 | 0.00 | 0.00 | 0.00 | 85 | 1016.6 |
| 20260502041639 | 61 | 0 | 0.0 | 1.0 | 0.00 | 0.00 | 0.00 | 85 | 1016.4 |
| 20260502041136 | 61 | 279 | 0.0 | 0.0 | 0.00 | 0.00 | 0.00 | 85 | 1016.2 |
| 20260502040632 | 61 | 279 | 0.0 | 0.0 | 0.00 | 0.00 | 0.00 | 86 | 1016.3 |
| 20260502040130 | 61 | 279 | 0.0 | 0.0 | 0.00 | 0.00 | 0.00 | 85 | 1016.4 |
| 20260502035626 | 61 | 279 | 0.0 | 0.0 | 0.00 | 0.00 | 0.00 | 85 | 1016.6 |
| 20260502035123 | 61 | 279 | 0.0 | 0.0 | 0.00 | 0.00 | 0.00 | 85 | 1016.7 |
| 20260502034621 | 61 | 90 | 0.0 | 0.0 | 0.00 | 0.00 | 0.00 | 86 | 1016.7 |
| 20260502034119 | 61 | 0 | 0.0 | 0.0 | 0.00 | 0.00 | 0.00 | 86 | 1016.7 |
| 20260502033616 | 61 | 0 | 0.0 | 0.0 | 0.00 | 0.00 | 0.00 | 86 | 1016.6 |
| 20260502033114 | 61 | 0 | 0.0 | 0.0 | 0.00 | 0.00 | 0.00 | 86 | 1016.7 |
| 20260502032609 | 61 | 74 | 0.0 | 0.0 | 0.00 | 0.00 | 0.00 | 87 | 1016.5 |
| 20260502032106 | 61 | 74 | 0.0 | 0.0 | 0.00 | 0.00 | 0.00 | 87 | 1016.7 |
| 20260502031604 | 61 | 74 | 0.0 | 0.0 | 0.00 | 0.00 | 0.00 | 86 | 1016.8 |
| 20260502031101 | 61 | 74 | 0.0 | 0.0 | 0.00 | 0.00 | 0.00 | 85 | 1016.6 |
| 20260502030601 | 61 | 74 | 0.0 | 0.0 | 0.00 | 0.00 | 0.00 | 85 | 1016.8 |
| 20260502030058 | 61 | 74 | 0.0 | 0.0 | 0.00 | 0.00 | 0.00 | 85 | 1016.7 |
| 20260502025555 | 61 | 74 | 0.0 | 0.0 | 0.00 | 0.00 | 0.00 | 84 | 1016.7 |
| 20260502025053 | 61 | 74 | 0.0 | 0.0 | 0.00 | 0.00 | 0.00 | 83 | 1016.8 |
| 20260502024550 | 62 | 74 | 0.0 | 1.0 | 0.00 | 0.00 | 0.00 | 83 | 1016.6 |
| 20260502024048 | 61 | 8 | 0.0 | 0.0 | 0.00 | 0.00 | 0.00 | 82 | 1016.5 |
| 20260502023546 | 61 | 8 | 0.0 | 0.0 | 0.00 | 0.00 | 0.00 | 82 | 1016.3 |
| 20260502023043 | 62 | 8 | 0.0 | 0.0 | 0.00 | 0.00 | 0.00 | 82 | 1016.3 |
| 20260502022539 | 62 | 8 | 0.0 | 0.0 | 0.00 | 0.00 | 0.00 | 82 | 1016.7 |
| 20260502022037 | 62 | 8 | 0.0 | 0.0 | 0.00 | 0.00 | 0.00 | 82 | 1016.7 |
| 20260502021534 | 62 | 8 | 0.0 | 0.0 | 0.00 | 0.00 | 0.00 | 81 | 1016.5 |
| 20260502021031 | 62 | 352 | 0.0 | 0.0 | 0.00 | 0.00 | 0.00 | 81 | 1016.4 |
| 20260502020529 | 62 | 352 | 0.0 | 0.0 | 0.00 | 0.00 | 0.00 | 80 | 1016.6 |
| 20260502020025 | 63 | 352 | 0.0 | 1.0 | 0.00 | 0.00 | 0.00 | 80 | 1016.6 |
| 20260502015523 | 63 | 15 | 0.0 | 0.0 | 0.00 | 0.00 | 0.00 | 79 | 1016.5 |
| 20260502015019 | 63 | 0 | 0.0 | 2.0 | 0.00 | 0.00 | 0.00 | 78 | 1016.6 |
| 20260502014516 | 63 | 0 | 0.0 | 1.0 | 0.00 | 0.00 | 0.00 | 79 | 1016.4 |
| 20260502014013 | 63 | 0 | 1.0 | 1.0 | 0.00 | 0.00 | 0.00 | 80 | 1016.7 |
| 20260502013509 | 63 | 0 | 0.0 | 1.0 | 0.00 | 0.00 | 0.00 | 80 | 1016.5 |
| 20260502013005 | 63 | 15 | 0.0 | 0.0 | 0.00 | 0.00 | 0.00 | 80 | 1016.3 |
| 20260502012503 | 64 | 15 | 0.0 | 1.0 | 0.00 | 0.00 | 0.00 | 79 | 1016.5 |
| 20260502012001 | 64 | 14 | 0.0 | 1.0 | 0.00 | 0.00 | 0.00 | 79 | 1016.5 |
| 20260502011456 | 64 | 277 | 0.0 | 1.0 | 0.00 | 0.00 | 0.00 | 80 | 1016.4 |
| 20260502010953 | 64 | 173 | 0.0 | 0.0 | 0.00 | 0.00 | 0.00 | 79 | 1016.3 |
| 20260502010450 | 64 | 180 | 0.0 | 0.0 | 0.00 | 0.00 | 0.00 | 78 | 1016.2 |
| 20260502005946 | 64 | 180 | 0.0 | 0.0 | 0.00 | 0.00 | 0.00 | 78 | 1016.3 |
| 20260502005444 | 64 | 180 | 0.0 | 1.0 | 0.00 | 0.00 | 0.00 | 77 | 1016.1 |
| 20260502004942 | 64 | 270 | 0.0 | 0.0 | 0.00 | 0.00 | 0.00 | 74 | 1016.1 |
| 20260502004438 | 64 | 270 | 0.0 | 0.0 | 0.00 | 0.00 | 0.00 | 73 | 1015.9 |
| 20260502003935 | 65 | 270 | 0.0 | 0.0 | 0.00 | 0.00 | 0.00 | 72 | 1015.8 |
| 20260502003432 | 64 | 270 | 0.0 | 0.0 | 0.00 | 0.00 | 0.00 | 72 | 1015.8 |
| 20260502002928 | 64 | 270 | 0.0 | 0.0 | 0.00 | 0.00 | 0.00 | 72 | 1015.7 |
| 20260502002426 | 65 | 270 | 0.0 | 0.0 | 0.00 | 0.00 | 0.00 | 73 | 1015.9 |
| 20260502001923 | 65 | 270 | 0.0 | 0.0 | 0.00 | 0.00 | 0.00 | 73 | 1015.9 |
| 20260502001421 | 65 | 270 | 0.0 | 0.0 | 0.00 | 0.00 | 0.00 | 72 | 1015.9 |
| 20260502000918 | 66 | 270 | 0.0 | 0.0 | 0.00 | 0.00 | 0.00 | 72 | 1015.8 |
| 20260502000417 | 66 | 270 | 0.0 | 0.0 | 0.00 | 0.00 | 0.00 | 71 | 1015.8 |
| 20260501235912 | 66 | 270 | 0.0 | 0.0 | 0.00 | 0.00 | 0.00 | 70 | 1015.6 |
| 20260501235408 | 66 | 270 | 0.0 | 0.0 | 0.00 | 0.00 | 0.00 | 70 | 1015.6 |
| 20260501234903 | 66 | 270 | 0.0 | 0.0 | 0.00 | 0.00 | 0.00 | 69 | 1015.5 |
| 20260501234400 | 67 | 270 | 0.0 | 0.0 | 0.00 | 0.00 | 0.00 | 68 | 1015.5 |
| 20260501233859 | 67 | 294 | 0.0 | 2.0 | 0.00 | 0.00 | 0.00 | 67 | 1015.4 |
| 20260501233356 | 67 | 285 | 0.0 | 2.0 | 0.00 | 0.00 | 0.00 | 69 | 1015.6 |
| 20260501232851 | 68 | 81 | 0.0 | 0.0 | 0.00 | 0.00 | 0.00 | 68 | 1015.2 |
| 20260501232349 | 68 | 81 | 0.0 | 0.0 | 0.00 | 0.00 | 0.00 | 66 | 1015.2 |
| 20260501231846 | 68 | 261 | 0.0 | 0.0 | 0.00 | 0.00 | 0.00 | 66 | 1015.1 |
| 20260501231344 | 68 | 0 | 0.0 | 2.0 | 0.00 | 0.00 | 0.00 | 66 | 1015.0 |
| 20260501230842 | 69 | 251 | 0.0 | 0.0 | 0.00 | 0.00 | 0.00 | 66 | 1015.0 |
| 20260501230341 | 68 | 99 | 0.0 | 2.0 | 0.00 | 0.00 | 0.00 | 65 | 1015.1 |
| 20260501225838 | 69 | 66 | 1.0 | 2.0 | 0.00 | 0.00 | 0.00 | 64 | 1015.1 |
| 20260501225336 | 69 | 69 | 0.0 | 1.0 | 0.00 | 0.00 | 0.00 | 64 | 1015.4 |
| 20260501224831 | 69 | 348 | 2.0 | 2.0 | 0.00 | 0.00 | 0.00 | 63 | 1015.4 |
| 20260501224329 | 69 | 74 | 1.0 | 1.0 | 0.00 | 0.00 | 0.00 | 63 | 1015.5 |
| 20260501223825 | 69 | 7 | 0.0 | 2.0 | 0.00 | 0.00 | 0.00 | 63 | 1016.0 |
| 20260501223321 | 69 | 78 | 2.0 | 2.0 | 0.00 | 0.00 | 0.00 | 63 | 1015.9 |
| 20260501222817 | 69 | 331 | 1.0 | 3.0 | 0.00 | 0.00 | 0.00 | 61 | 1015.9 |
| 20260501222315 | 70 | 283 | 1.0 | 4.0 | 0.00 | 0.00 | 0.00 | 60 | 1015.8 |
| 20260501221811 | 71 | 319 | 2.0 | 2.0 | 0.00 | 0.00 | 0.00 | 61 | 1015.7 |
| 20260501221308 | 71 | 63 | 0.0 | 3.0 | 0.00 | 0.00 | 0.00 | 61 | 1015.6 |
| 20260501220807 | 71 | 270 | 0.0 | 3.0 | 0.00 | 0.00 | 0.00 | 60 | 1015.6 |
| 20260501220303 | 72 | 29 | 0.0 | 3.0 | 0.00 | 0.00 | 0.00 | 60 | 1015.7 |
| 20260501215800 | 71 | 0 | 0.0 | 3.0 | 0.00 | 0.00 | 0.00 | 61 | 1016.0 |
| 20260501215256 | 71 | 35 | 1.0 | 1.0 | 0.00 | 0.00 | 0.00 | 62 | 1015.8 |
| 20260501214751 | 71 | 276 | 3.0 | 3.0 | 0.00 | 0.00 | 0.00 | 61 | 1015.9 |
| 20260501214247 | 71 | 237 | 2.0 | 3.0 | 0.00 | 0.00 | 0.00 | 61 | 1016.2 |
| 20260501213743 | 71 | 95 | 2.0 | 3.0 | 0.00 | 0.00 | 0.00 | 64 | 1016.2 |
| 20260501213240 | 70 | 84 | 1.0 | 3.0 | 0.00 | 0.00 | 0.00 | 64 | 1016.1 |
| 20260501212736 | 70 | 246 | 3.0 | 5.0 | 0.00 | 0.00 | 0.00 | 63 | 1016.3 |
| 20260501212233 | 71 | 79 | 3.0 | 3.0 | 0.00 | 0.00 | 0.00 | 62 | 1016.5 |
| 20260501211730 | 71 | 47 | 3.0 | 4.0 | 0.00 | 0.00 | 0.00 | 65 | 1016.2 |
| 20260501211227 | 71 | 341 | 2.0 | 4.0 | 0.00 | 0.00 | 0.00 | 64 | 1016.4 |
| 20260501210724 | 71 | 225 | 5.0 | 5.0 | 0.00 | 0.00 | 0.00 | 63 | 1016.4 |
| 20260501210221 | 70 | 0 | 0.0 | 2.0 | 0.00 | 0.00 | 0.00 | 66 | 1016.2 |
| 20260501205717 | 70 | 180 | 0.0 | 3.0 | 0.00 | 0.00 | 0.00 | 65 | 1016.0 |
| 20260501205214 | 70 | 306 | 0.0 | 4.0 | 0.00 | 0.00 | 0.00 | 64 | 1016.0 |
| 20260501204711 | 71 | 56 | 2.0 | 5.0 | 0.00 | 0.00 | 0.00 | 64 | 1016.2 |
| 20260501204208 | 71 | 270 | 0.0 | 2.0 | 0.00 | 0.00 | 0.00 | 64 | 1015.8 |
| 20260501203704 | 71 | 270 | 0.0 | 2.0 | 0.00 | 0.00 | 0.00 | 63 | 1016.2 |
| 20260501203201 | 71 | 342 | 2.0 | 3.0 | 0.00 | 0.00 | 0.00 | 63 | 1016.0 |
| 20260501202658 | 71 | 18 | 0.0 | 2.0 | 0.00 | 0.00 | 0.00 | 63 | 1016.0 |
| 20260501202155 | 72 | 307 | 2.0 | 2.0 | 0.00 | 0.00 | 0.00 | 63 | 1016.2 |
| 20260501201652 | 71 | 297 | 2.0 | 3.0 | 0.00 | 0.00 | 0.00 | 63 | 1015.9 |
| 20260501201148 | 70 | 39 | 3.0 | 3.0 | 0.00 | 0.00 | 0.00 | 63 | 1016.0 |
| 20260501200646 | 70 | 172 | 0.0 | 4.0 | 0.00 | 0.00 | 0.00 | 63 | 1016.0 |
| 20260501200143 | 69 | 157 | 0.0 | 2.0 | 0.00 | 0.00 | 0.00 | 65 | 1016.3 |
| 20260501195641 | 69 | 114 | 3.0 | 5.0 | 0.00 | 0.00 | 0.00 | 63 | 1016.1 |
| 20260501195136 | 70 | 74 | 2.0 | 2.0 | 0.00 | 0.00 | 0.00 | 63 | 1016.4 |
| 20260501194631 | 69 | 90 | 3.0 | 4.0 | 0.00 | 0.00 | 0.00 | 63 | 1016.3 |
| 20260501194127 | 70 | 77 | 2.0 | 3.0 | 0.00 | 0.00 | 0.00 | 61 | 1016.7 |
| 20260501193625 | 71 | 81 | 2.0 | 2.0 | 0.00 | 0.00 | 0.00 | 62 | 1017.0 |
| 20260501193123 | 69 | 75 | 0.0 | 2.0 | 0.00 | 0.00 | 0.00 | 64 | 1017.3 |
| 20260501192620 | 68 | 53 | 3.0 | 3.0 | 0.00 | 0.00 | 0.00 | 64 | 1017.3 |
| 20260501192117 | 68 | 130 | 3.0 | 4.0 | 0.00 | 0.00 | 0.00 | 65 | 1017.2 |
| 20260501191614 | 68 | 19 | 2.0 | 6.0 | 0.00 | 0.00 | 0.00 | 64 | 1017.3 |
| 20260501191111 | 69 | 129 | 2.0 | 7.0 | 0.00 | 0.00 | 0.00 | 63 | 1017.5 |
| 20260501190608 | 69 | 348 | 4.0 | 4.0 | 0.00 | 0.00 | 0.00 | 61 | 1017.6 |
| 20260501185559 | 68 | 320 | 2.0 | 5.0 | 0.00 | 0.00 | 0.00 | 64 | 1017.7 |
| 20260501185055 | 68 | 68 | 0.0 | 5.0 | 0.00 | 0.00 | 0.00 | 63 | 1017.7 |
| 20260501184551 | 68 | 340 | 1.0 | 5.0 | 0.00 | 0.00 | 0.00 | 63 | 1017.5 |
| 20260501184046 | 69 | 168 | 0.0 | 5.0 | 0.00 | 0.00 | 0.00 | 62 | 1017.6 |
| 20260501183543 | 68 | 277 | 3.0 | 4.0 | 0.00 | 0.00 | 0.00 | 62 | 1017.8 |
| 20260501183039 | 68 | 74 | 0.0 | 5.0 | 0.00 | 0.00 | 0.00 | 64 | 1017.7 |
| 20260501182536 | 68 | 90 | 2.0 | 6.0 | 0.00 | 0.00 | 0.00 | 64 | 1017.8 |
| 20260501182033 | 67 | 90 | 0.0 | 4.0 | 0.00 | 0.00 | 0.00 | 65 | 1017.7 |
| 20260501181531 | 67 | 339 | 3.0 | 4.0 | 0.00 | 0.00 | 0.00 | 63 | 1017.9 |
| 20260501181027 | 68 | 315 | 4.0 | 6.0 | 0.00 | 0.00 | 0.00 | 64 | 1018.0 |
| 20260501180525 | 67 | 82 | 3.0 | 6.0 | 0.00 | 0.00 | 0.00 | 65 | 1017.8 |
| 20260501180021 | 65 | 292 | 2.0 | 5.0 | 0.00 | 0.00 | 0.00 | 65 | 1017.7 |